Preview of NWS' New Version of Forecast
This preview is not operational and should not be used for support decisions.

Regional Weather Roundup (RWR)

Issued by National Weather Service (NWS)

                            
000
ASUS43 KDTX 210001
RWRMI 
MICHIGAN HOURLY REGIONAL WEATHER ROUNDUP
NATIONAL WEATHER SERVICE DETROIT/PONTIAC MI
800 PM EDT SAT APR 20 2019

NOTE: "FAIR" INDICATES FEW OR NO CLOUDS BELOW 12,000 FEET WITH NO
SIGNIFICANT WEATHER AND/OR OBSTRUCTION TO VISIBILITY.

MIZ047>049-052>055-059>063-066>070-074>076-081>083-210100-
SOUTHEAST LOWER MICHIGAN
  
CITY           SKY/WX    TMP DP  RH WIND       PRES   REMARKS
ADRIAN         LGT RAIN  43  39  86 N7        29.77R                  
6HR MIN TEMP:  42; 6HR MAX TEMP:  43; 6HR PCP:  0.66;                

ALMA           FAIR      50  36  58 E12       29.78S                  
6HR MIN TEMP:  50; 6HR MAX TEMP:  64;                                

ANN ARBOR      CLOUDY    43  40  89 NW9       29.76R                  
BAD AXE        LGT RAIN  40  39  93 N6        29.75S                  
6HR MIN TEMP:  40; 6HR MAX TEMP:  42;                                

CARO           DRIZZLE   41  39  93 N3        29.76S                  
DETROIT CITY   CLOUDY    44  40  85 N6        29.75R                  
6HR MIN TEMP:  40; 6HR MAX TEMP:  44; 6HR PCP:  0.05;                

DETROIT        CLOUDY    44  39  82 NW8       29.76R                  
6HR MIN TEMP:  41; 6HR MAX TEMP:  45; 6HR PCP:  0.11;                

FLINT          CLOUDY    42  40  92 N7        29.78R                  
6HR MIN TEMP:  42; 6HR MAX TEMP:  43; 6HR PCP:  0.31;                

GROSSE ILE     CLOUDY    44  41  90 NW8       29.74R                  
6HR MIN TEMP:  42; 6HR MAX TEMP:  44;                                

HILLSDALE      LGT RAIN  42  38  88 CALM      29.76R                  
6HR MIN TEMP:  42; 6HR MAX TEMP:  44; 6HR PCP:  0.22;                

HOWELL         CLOUDY    41  39  93 N3        29.77R FOG              
6HR MIN TEMP:  41; 6HR MAX TEMP:  42; 6HR PCP:  0.22;                


CITY           SKY/WX    TMP DP  RH WIND       PRES   REMARKS
JACKSON        LGT RAIN  42  41  96 NW6       29.77R                  
6HR MIN TEMP:  42; 6HR MAX TEMP:  44; 6HR PCP:  0.38;                

LAMBERTVILLE   CLOUDY    44  42  93 NW3       29.75R                  
6HR MIN TEMP:  41; 6HR MAX TEMP:  44;                                

LANSING        CLOUDY    43  40  89 NE7       29.79R                  
6HR MIN TEMP:  43; 6HR MAX TEMP:  54; 6HR PCP:  0.01;                

LAPEER         LGT RAIN  42  41  97 N5        29.76S                  
6HR MIN TEMP:  41; 6HR MAX TEMP:  42; 6HR PCP:  0.35;                

MASON          RAIN      42  40  93 N5        29.79R                  
6HR MIN TEMP:  42; 6HR MAX TEMP:  45;                                

MONROE         CLOUDY    44  44  98 NW7       29.75R                  
6HR MIN TEMP:  42; 6HR MAX TEMP:  45; 6HR PCP:  0.02;                

MT. CLEMENS    CLOUDY    45  45 100 N9        29.73R                  
PONTIAC        CLOUDY    42  41  96 N7        29.74R                  
6HR MIN TEMP:  40; 6HR MAX TEMP:  42;                                

PORT HOPE        N/A     40  35  83 N6        29.74S                  
6HR MIN TEMP:  39; 6HR MAX TEMP:  40; 6HR PCP:  0.15;                

PORT HURON     CLOUDY    43  39  87 CALM      29.74R                  
TRI CITIES     CLOUDY    48  36  63 E10       29.78R                  
6HR MIN TEMP:  48; 6HR MAX TEMP:  54;                                

MIDLAND        FAIR      51  36  54 E14       29.77R                  
6HR MIN TEMP:  51; 6HR MAX TEMP:  61;                                

TROY           CLOUDY    44  39  83 N6        29.76S                  
SAGINAW HB     CLOUDY    45  41  87 NE6       29.78R                  
$$
MIZ043>046-050>051-056>058-064>065-071>073-077>080-210100-
SOUTHWEST LOWER MICHIGAN
  
CITY           SKY/WX    TMP DP  RH WIND       PRES   REMARKS
BATTLE CREEK   CLOUDY    48  39  71 E10       29.77R                  
6HR MIN TEMP:  48; 6HR MAX TEMP:  58;                                

BENTON HARBOR  FAIR      45  26  47 N7        29.78S                  
6HR MIN TEMP:  45; 6HR MAX TEMP:  49;                                

BIG RAPIDS     FAIR      62  13  14 N8        29.74R                  
6HR MIN TEMP:  62; 6HR MAX TEMP:  65;                                

COLDWATER      CLOUDY    45  43  95 NE6       29.78R                  
6HR MIN TEMP:  44; 6HR MAX TEMP:  46;                                

FREMONT        FAIR      59  20  21 NW10      29.75R                  
6HR MIN TEMP:  59; 6HR MAX TEMP:  69;                                

HOLLAND        FAIR      57  28  33 NW8       29.75S                  
6HR MIN TEMP:  55; 6HR MAX TEMP:  66;                                

GRAND RAPIDS   FAIR      52  41  66 E15       29.76R                  
6HR MIN TEMP:  52; 6HR MAX TEMP:  66;                                

IONIA          FAIR      47  37  68 E10       29.78R                  
6HR MIN TEMP:  47; 6HR MAX TEMP:  63;                                

KALAMAZOO      FAIR      50  40  68 SE7       29.79R                  
6HR MIN TEMP:  50; 6HR MAX TEMP:  64;                                

LUDINGTON      FAIR      50  18  28 N8        29.78S                  
6HR MIN TEMP:  50; 6HR MAX TEMP:  58;                                

MARSHALL       CLOUDY    43  43 100 NE5       29.78R                  
6HR MIN TEMP:  43; 6HR MAX TEMP:  50; 6HR PCP:  0.01;                

MOUNT PLEASANT FAIR      53  38  56 SE6       29.76S                  
6HR MIN TEMP:  53; 6HR MAX TEMP:  64;                                

MUSKEGON       FAIR      59  22  24 NW10      29.76R                  
6HR MIN TEMP:  59; 6HR MAX TEMP:  71;                                

SOUTH HAVEN    FAIR      46  26  46 N8        29.76S                  
$$
MIZ016>042-210100-
NORTHERN LOWER MICHIGAN
  
CITY           SKY/WX    TMP DP  RH WIND       PRES   REMARKS
ALPENA         FAIR      54  20  26 N7        29.78S                  
6HR MIN TEMP:  54; 6HR MAX TEMP:  60;                                

BEAVER ISLAND  FAIR      49  25  39 W5        29.80R                  
6HR MIN TEMP:  49; 6HR MAX TEMP:  59;                                

BELLAIRE       FAIR      58  14  18 CALM      29.78R                  
6HR MIN TEMP:  58; 6HR MAX TEMP:  65;                                

CADILLAC       FAIR      57  18  21 N8        29.76R                  
CHARLEVOIX     FAIR      49  24  38 W3        29.81S                  
6HR MIN TEMP:  46; 6HR MAX TEMP:  54;                                

FRANKFORT      FAIR      54  14  21 N7        29.79S                  
GAYLORD        FAIR      56  30  37 N3        29.77R                  
6HR MIN TEMP:  55; 6HR MAX TEMP:  60;                                

HARBOR SPRINGS FAIR      44  26  48 SW5       29.78S                  
HOUGHTON LAKE  FAIR      58   7  13 N8        29.76R                  
6HR MIN TEMP:  58; 6HR MAX TEMP:  63;                                

MANISTEE       FAIR      49  27  42 NW6       29.78S                  
OSCODA         CLOUDY    54  25  32 NE9       29.76S                  
6HR MIN TEMP:  51; 6HR MAX TEMP:  56;                                

PELLSTON       FAIR      58  11  15 CALM      29.78S                  
6HR MIN TEMP:  58; 6HR MAX TEMP:  62;                                

ROGERS CITY    FAIR      56  19  24 W3        29.78S                  
TRAVERSE CITY  FAIR      53  23  31 NE6       29.78S                  
6HR MIN TEMP:  53; 6HR MAX TEMP:  59;                                

$$
MIZ007>008-015-210100-
EASTERN UPPER MICHIGAN
  
CITY           SKY/WX    TMP DP  RH WIND       PRES   REMARKS
KINROSS        FAIR      58  21  24 N5        29.78S                  
6HR MIN TEMP:  55; 6HR MAX TEMP:  61;                                

MACKINAC ISLAN FAIR      53  16  23 CALM      29.77S                  
6HR MIN TEMP:  51; 6HR MAX TEMP:  58;                                

NEWBERRY       FAIR      58  17  19 W7        29.77R                  
6HR MIN TEMP:  58; 6HR MAX TEMP:  62;                                

S. S. MARIE    FAIR      58  26  29 W5        29.76S                  
6HR MIN TEMP:  58; 6HR MAX TEMP:  63;                                

MUNISING         N/A     59  14  17 S8        29.76S                  
6HR MIN TEMP:  59; 6HR MAX TEMP:  65;                                

$$
MIZ004>006-011>014-085-210100-
CENTRAL UPPER MICHIGAN
  
CITY           SKY/WX    TMP DP  RH WIND       PRES   REMARKS
MANISTIQUE     FAIR     N/A N/A N/A S3        29.78S                  
ESCANABA       FAIR      51  11  20 CALM      29.79S                  
6HR MIN TEMP:  50; 6HR MAX TEMP:  55;                                

SAWYER-GWINN   CLEAR     59  19  21 S12       29.75R                  
$$
MIZ001>003-009>011-084-210100-
WESTERN UPPER MICHIGAN
  
CITY           SKY/WX    TMP DP  RH WIND       PRES   REMARKS
IRON MOUNTAIN  FAIR      62  27  26 SE10      29.74R                  
6HR MIN TEMP:  61; 6HR MAX TEMP:  69;                                

HOUGHTON       CLOUDY    55  26  32 NE6       29.72R                  
6HR MIN TEMP:  55; 6HR MAX TEMP:  64;                                

COPPER HARBOR    N/A     52  23  32 VRB3      29.73R                  
6HR MIN TEMP:  51; 6HR MAX TEMP:  58;                                

IRONWOOD       CLOUDY    66  36  32 S5        29.71S                  
6HR MIN TEMP:  62; 6HR MAX TEMP:  69;                                

$$

ABBREVIATIONS USED IN REMARKS
   TC - TEMPERATURE IN CELSIUS
  WCI - WIND CHILL INDEX
   HX - HEAT INDEX
  VSB - VISIBILITY